sat.trackr.live / text

‹ back to catalog

ELECTRON R/B

NORAD 69647 · 2026-142B

ROCKET_BODY UNKNOWN UNKNOWN

§ Identity

Operator
Country
US
Launch date
2026-06-19
Launch site
RLLB
Launch vehicle
Mass (kg)
RCS (m²)

External: N2YO · Heavens-Above · Gunter

§ Orbital elements

Epoch: 2026-06-28T00:06:53.359200Z

Period
87.61 min
Inclination
97.4163°
Eccentricity
0.0049479
Mean motion
16.43710518 rev/d
Perigee alt
123.6 km
Apogee alt
188.3 km
Semi-major
6,534.1 km
B*
2.0639e-4
RAAN
77.4166°
Arg perigee
229.2058°
Mean anomaly
130.4946°
Rev number
138

§ Raw data

ELECTRON R/B1 69647U 26142B   26179.00478425  .16131541  20857-5  20639-3 0  99942 69647  97.4163  77.4166 0049479 229.2058 130.4946 16.43710518  1381

JSON: /api/v1/satellites/69647 · /tle

For live sub-satellite position, see the globe view (requires WebGL).

§ Visibility from observer

Set your observer location to see the next 7 days of passes ≥ 10°. The values pass through the URL so the page stays shareable.

No JS? Fill the form by hand. The geolocation button needs JavaScript.